STARLINK-5706, 55488

Orbit data source: Space-Track

STARLINK-5706, 55488 is a payload satellite owned by SpaceX/Seattle (US) in LEO that was launched on Thu, 02 Feb 2023 UTC via an FALCON 9 launch vehicle from the Air Force Eastern Test Range (AFETR). Payload-class satellites include a variety of spacecraft equipped with specific instruments for various scientific and technological missions. These include communications satellites like Starlink; space stations such as the ISS; scientific satellites like the Hubble; Earth observation satellites from companies like Planet Labs, Umbra, and HawkEye 360; GPS; miniature CubeSats for education and research; and military/defense satellites.

Loading next visibility...
Identifier
55488, 2023-015AR
Orbit
LEO
Country
Flag of USUS
Related business
Manufacturer
SpaceX/Seattle
Mission
Operational Commercial Communications
Bus & Motor
STARLINK, Unknown motor
Mass
305 kg wet, ~290 kg dry
Launch date (UTC)
2023-02-02 (4 years ago)
Launch vehicle
FALCON 9
Launch site
Air Force Eastern Test Range (AFETR)
Object type
Payload
Rocket body
Debris
Shape & HBR
Box + 1 Pan, 10.1 m
Radar Cross Section
13.562 m², Large (>1 m²)

Expand to show TLE details & history
Last TLE update: 5 hours ago

TLE from 5 hours ago
0 STARLINK-5706
1 55488U 23015AR  26258.62637399  .00000025  00000-0  10431-4 0  9999
2 55488  43.0047 347.0639 0001497 288.5214  71.5475 15.27575623199644
Epoch: 2026-09-15T15:01Z
TLE epoch observation values (Epoch: 2026-09-15T15:01:58.712Z)
Latitude
-0.00003°
Longitude
126.97962°
Altitude
482.513 km
Speed
7.626 km/s
True Right ascension
23h 08m 15s
True Declination
0° 00' 00"
Sunlit
Object was in full shadow at epoch
Visualization orbit readout
Latitude
Unknown
Longitude
Unknown
Altitude
Unknown
Speed
Unknown
Apparent Right ascension
Unknown
Apparent Declination
Unknown
Sunlit
N/A
Visualization observer readout
Local Sidereal Time
12:57:24
Azimuth
Unknown
Elevation
Unknown
Doppler factor
Unknown
Orbital elements
Apogee altitude
486.034 km
Perigee altitude
483.979 km
Semi-major axis
6,863.144 km
Eccentricity
0.00015
Inclination
43.0047°
RAAN
347.0639°
Arg. of periapsis
288.5214°
True anomaly
71.56377°
Mean anomaly
71.5475°
Eccentric anomaly
71.55564°
Mean motion
3.81732 °/min
Orbital period
94.31 mins
BSTAR
0.000010431
Loading maneuver chart data...
Computing Atmospheric mass density...
Loading historical data...
Loading historical data...
Loading historical data...
Loading historical data...
Loading historical data...
Loading historical data...
Loading historical data...

Documentation

Showing up to 5 results
|